User: anonymous   Login
Location: Fort Wayne
(41.1310°N, 85.1290°W)
Time: 06:39:22
(UTC-04:00)
Language:

Cosmos 1953 - Orbit

View from above orbital plane
View from above orbital plane
View from above satellite
View from above satellite

Ground track
Ground track

The orbit data is extracted from the following two-line orbital elements,

1 19210U 88050A   18109.91430630 +.00000604 +00000-0 +39913-4 0  9998
2 19210 082.5152 095.9380 0012176 296.9347 063.0635 15.05542867602856
Epoch (UTC): 19 April 2018 21:56:36
Eccentricity: 0.0012176
inclination: 82.5152°
perigee height: 541 km
apogee height: 558 km
right ascension of ascending node: 95.9380°
argument of perigee: 296.9347°
revolutions per day: 15.05542867
mean anomaly at epoch: 63.0635°
orbit number at epoch: 60285

The dashed part of the orbit path shows where the satellite is in the earth's shadow,  

DLR